STARLINK-1848, 46740

Orbit data source: Space-Track

STARLINK-1848, 46740 is a payload satellite owned by SpaceX/Seattle (US) in LEO that was launched on Sat, 24 Oct 2020 UTC via an FALCON 9 launch vehicle from the Air Force Eastern Test Range (AFETR). Payloads include a variety of satellites, spacecraft, and rockets equipped with specific instruments for various scientific and technological missions. These include communications satellites like Starlink; space stations such as the ISS; scientific satellites like the Hubble; Earth observation satellites from companies like Planet Labs, Umbra, and HawkEye 360; GPS; miniature CubeSats for education and research; and military/defense satellites.

Loading next visibility...
STARLINK-1848 details
Identifier
46740, 2020-074B
Orbit
LEO
Last TLE update7 hours ago
Origin
Flag of USSpaceX/Seattle (US)
ManufacturerSpaceX/Seattle
MissionOperational Commercial Communications
Bus & MotorSTARLINK, Unknown motor
Mass260 kg wet, ~248 kg dry
Launch date (UTC)
2020-10-24 (4 years ago)
Launch vehicle
FALCON 9
Launch site
Air Force Eastern Test Range (AFETR)
Object type
Payload
Rocket body
Debris
Shape & HBRBox + 1 Pan, 8.86 m
Radar Cross Section13.562 m², Large (>1 m²)

Expand to show TLE details & history

TLE from 7 hours ago
0 STARLINK-1848
1 46740U 20074B   24361.36384310  .00000532  00000-0  54647-4 0  9998
2 46740  53.0571 134.3405 0001477  87.7079 272.4079 15.06396550230557
Epoch: 2024-12-26T08:43Z
Definitive object data (Epoch: 2024-12-26T08:43:56.043Z)
Latitude-0.00005°
Longitude-91.98735°
Altitude548.059 km
Speed7.589 km/s
True Right ascension08h 57m 21s
True Declination0° 00' 00"
Sunlit
Object was in full shadow at TLE epoch
Visualization TLE readout
Latitude44.33872°
Longitude39.76844°
Altitude550.873 km
Speed7.592 km/s
Apparent Right ascension22h 18m 04s
Apparent Declination12° 11' 40"
Sunlit
Object is in daylight
Visualization observer readout
Local Sidereal Time14:59:45
Azimuth67.993° E
Elevation-6.644°
Doppler factor1
Orbital elements
Apogee altitude548.515 km
Perigee altitude546.47 km
Semi-major axis6,925.629 km
Eccentricity0.0001477
Inclination53.0571°
RAAN134.3405°
Arg. of periapsis87.7079°
True anomaly272.39099°
Mean anomaly272.4079°
Eccentric anomaly272.39944°
Mean motion3.76577 °/min
BSTAR0.000054647
Orbital period95.6 mins
Loading maneuver chart data...

STARLINK-1848 Visibility forecast

Observer location: undefined°, undefined

Span
Click to sort rows by Start time (UTC) header in descending order
Start Az.
Max El. time (UTC)
Max El. Az.
Max El.
End time (UTC)
End Az.
6 mins2024-12-26 17:07:42.755Z332.394° NNW2024-12-26 17:10:42.755Z21.257° NNE19.654°2024-12-26 17:13:42.755Z70.39° E
7 mins2024-12-26 18:47:42.755Z310.332° NW2024-12-26 18:50:42.755Z40.723° NE44.99°2024-12-26 18:54:42.755Z130.358° SE
6 mins2024-12-27 12:00:42.755Z245.193° WSW2024-12-27 12:02:42.755Z306.417° NW42.616°2024-12-27 12:06:42.755Z45.628° ENE
4 mins2024-12-27 13:41:42.755Z317.807° NNW2024-12-27 13:42:42.755Z336.07° NNW17.461°2024-12-27 13:45:42.755Z24.993° NE
|